Orbital Elements at Epoch 2459000.5 (2020-May-31.0) TDB
Reference: JPL 27 (heliocentric ecliptic J2000)
Element | Value | Uncertainty (1-sigma) | Units |
e | .1586584591648629 | 3.5589e-08 | |
a | 2.371201550069941 | 7.5032e-09 | au |
q | 1.99499036576651 | 8.4668e-08 | au |
i | 3.127474836812292 | 3.8068e-06 | deg |
node | 172.617505057365 | 6.5958e-05 | deg |
peri | 235.5997311745796 | 6.7048e-05 | deg |
M | 319.0208112916433 | 1.0564e-05 | deg |
tp | 2459152.314057440915 (2020-Oct-29.81405744) | 3.8999e-05 | TDB |
period | 1333.678445117295 3.65 | 6.3303e-06 1.733e-08 | d yr |
n | .269930132947705 | 1.2812e-09 | deg/d |
Q | 2.747412734373373 | 8.6937e-09 | au |
|
| | Orbit Determination Parameters
Additional Information
|